Time,TemperatureF,DewpointF,PressureIn,WindDirection,WindDirectionDegrees,WindSpeedMPH,WindSpeedGustMPH,Humidity,HourlyPrecipIn,Conditions,Clouds,dailyrainin,SoftwareType,DateUTC
2013-03-28 00:03:00,39.9,32.7,29.94,South,180,0.0,0.0,75,0.00,,---,0.00,VWS V14.01,2013-03-28 07:03:00,
2013-03-28 00:08:00,39.9,33.0,29.97,South,180,0.0,0.0,76,0.00,,---,0.00,VWS V14.01,2013-03-28 07:08:00,
2013-03-28 00:13:00,39.7,32.8,29.97,SSW,202,0.0,0.0,76,0.00,,---,0.00,VWS V14.01,2013-03-28 07:13:00,
2013-03-28 00:19:00,39.4,32.8,29.97,SSW,202,0.0,0.0,77,0.00,,---,0.00,VWS V14.01,2013-03-28 07:19:00,
2013-03-28 00:24:00,39.4,32.8,29.97,SSE,158,0.0,0.0,77,0.00,,---,0.00,VWS V14.01,2013-03-28 07:24:00,
2013-03-28 00:29:00,39.2,32.6,29.97,SSE,158,0.0,0.0,77,0.00,,---,0.00,VWS V14.01,2013-03-28 07:29:00,
2013-03-28 00:34:00,39.0,33.1,29.97,SSE,158,0.0,0.0,79,0.00,,---,0.00,VWS V14.01,2013-03-28 07:34:00,
2013-03-28 00:39:00,38.5,32.5,29.97,SSE,158,0.0,0.0,79,0.00,,---,0.00,VWS V14.01,2013-03-28 07:39:00,
2013-03-28 00:44:00,38.5,32.2,29.97,SSE,158,0.0,0.0,78,0.00,,---,0.00,VWS V14.01,2013-03-28 07:44:00,
2013-03-28 00:49:00,38.1,32.8,29.97,ESE,112,0.0,0.0,81,0.00,,---,0.00,VWS V14.01,2013-03-28 07:49:00,
2013-03-28 00:54:00,38.1,33.1,29.97,ESE,112,0.0,0.0,82,0.00,,---,0.00,VWS V14.01,2013-03-28 07:54:00,
2013-03-28 00:59:00,38.1,32.8,29.97,ESE,112,0.0,0.0,81,0.00,,---,0.00,VWS V14.01,2013-03-28 07:59:00,
2013-03-28 01:04:00,37.8,32.5,29.97,ESE,112,0.0,0.0,81,0.00,,---,0.00,VWS V14.01,2013-03-28 08:04:00,
2013-03-28 01:09:00,37.8,32.5,29.97,ESE,112,0.0,0.0,81,0.00,,---,0.00,VWS V14.01,2013-03-28 08:09:00,
2013-03-28 01:14:00,37.8,32.5,29.97,ESE,112,0.0,0.0,81,0.00,,---,0.00,VWS V14.01,2013-03-28 08:14:00,
2013-03-28 01:19:00,37.9,33.0,29.97,SE,135,0.0,0.0,82,0.00,,---,0.00,VWS V14.01,2013-03-28 08:19:00,
2013-03-28 01:24:00,37.8,32.8,29.97,East,90,0.0,0.0,82,0.00,,---,0.00,VWS V14.01,2013-03-28 08:24:00,
2013-03-28 01:29:00,37.8,32.8,29.97,ENE,68,0.0,0.0,82,0.00,,---,0.00,VWS V14.01,2013-03-28 08:29:00,
2013-03-28 01:35:00,37.6,32.6,29.97,East,90,0.0,0.0,82,0.00,,---,0.00,VWS V14.01,2013-03-28 08:35:00,
2013-03-28 01:40:00,37.6,32.6,29.97,ESE,112,0.0,0.0,82,0.00,,---,0.00,VWS V14.01,2013-03-28 08:40:00,
2013-03-28 01:45:00,37.6,32.6,29.97,East,90,0.0,0.0,82,0.00,,---,0.00,VWS V14.01,2013-03-28 08:45:00,
2013-03-28 01:50:00,37.6,32.9,29.97,East,90,0.0,0.0,83,0.00,,---,0.00,VWS V14.01,2013-03-28 08:50:00,
2013-03-28 01:55:00,37.8,33.1,30.00,ESE,112,0.0,0.0,83,0.00,,---,0.00,VWS V14.01,2013-03-28 08:55:00,
2013-03-28 02:00:00,37.9,33.2,30.00,East,90,0.0,0.0,83,0.00,,---,0.00,VWS V14.01,2013-03-28 09:00:00,
2013-03-28 02:05:00,38.1,33.7,30.00,ESE,112,0.0,0.0,84,0.00,,---,0.00,VWS V14.01,2013-03-28 09:05:00,
2013-03-28 02:10:00,38.3,33.9,29.97,East,90,0.0,0.0,84,0.00,,---,0.00,VWS V14.01,2013-03-28 09:10:00,
2013-03-28 02:15:00,38.3,33.6,29.97,East,90,0.0,0.0,83,0.00,,---,0.00,VWS V14.01,2013-03-28 09:15:00,
2013-03-28 02:20:00,38.5,34.1,29.97,East,90,0.0,0.0,84,0.00,,---,0.00,VWS V14.01,2013-03-28 09:20:00,
2013-03-28 02:25:00,38.7,34.2,29.97,ESE,112,0.0,0.0,84,0.00,,---,0.00,VWS V14.01,2013-03-28 09:25:00,
2013-03-28 02:30:00,39.0,34.9,29.97,East,90,2.7,2.7,85,0.00,,---,0.00,VWS V14.01,2013-03-28 09:30:00,
2013-03-28 02:35:00,39.2,34.8,29.97,NNE,22,2.7,2.7,84,0.00,,---,0.00,VWS V14.01,2013-03-28 09:35:00,
2013-03-28 02:40:00,39.4,35.0,30.00,NE,45,0.0,0.0,84,0.00,,---,0.00,VWS V14.01,2013-03-28 09:40:00,
2013-03-28 02:45:00,39.4,35.0,30.00,ENE,68,2.5,2.5,84,0.00,,---,0.00,VWS V14.01,2013-03-28 09:45:00,
2013-03-28 02:50:00,39.7,35.3,30.00,ENE,68,1.3,1.3,84,0.00,,---,0.00,VWS V14.01,2013-03-28 09:50:00,
2013-03-28 02:56:00,39.7,35.3,30.00,ESE,112,0.0,0.0,84,0.00,,---,0.00,VWS V14.01,2013-03-28 09:56:00,
2013-03-28 03:01:00,39.6,35.1,30.00,East,90,2.2,2.2,84,0.00,,---,0.00,VWS V14.01,2013-03-28 10:01:00,
2013-03-28 03:06:00,39.7,35.6,30.00,East,90,2.0,2.0,85,0.00,,---,0.00,VWS V14.01,2013-03-28 10:06:00,
2013-03-28 03:11:00,39.9,36.1,30.00,East,90,1.1,1.1,86,0.00,,---,0.00,VWS V14.01,2013-03-28 10:11:00,
2013-03-28 03:16:00,40.1,36.3,30.00,ENE,68,1.1,1.1,86,0.00,,---,0.00,VWS V14.01,2013-03-28 10:16:00,
2013-03-28 03:21:00,40.1,36.0,30.00,East,90,0.0,0.0,85,0.00,,---,0.00,VWS V14.01,2013-03-28 10:21:00,
2013-03-28 03:26:00,40.1,36.3,30.00,East,90,2.9,2.9,86,0.00,,---,0.00,VWS V14.01,2013-03-28 10:26:00,
2013-03-28 03:31:00,39.9,35.8,30.00,East,90,2.0,2.0,85,0.00,,---,0.00,VWS V14.01,2013-03-28 10:31:00,
2013-03-28 03:36:00,39.9,35.8,30.00,ESE,112,2.2,2.2,85,0.00,,---,0.00,VWS V14.01,2013-03-28 10:36:00,
2013-03-28 03:41:00,39.9,35.8,30.00,ESE,112,2.7,2.7,85,0.00,,---,0.00,VWS V14.01,2013-03-28 10:41:00,
2013-03-28 03:46:00,40.1,35.7,30.00,SSE,158,0.0,0.0,84,0.00,,---,0.00,VWS V14.01,2013-03-28 10:46:00,
2013-03-28 04:06:00,39.9,35.8,30.00,ESE,112,0.0,0.0,85,0.00,,---,0.00,VWS V14.01,2013-03-28 11:06:00,
2013-03-28 04:11:00,39.7,35.6,30.00,NNE,22,0.0,0.0,85,0.00,,---,0.00,VWS V14.01,2013-03-28 11:11:00,
2013-03-28 04:16:00,39.4,35.0,30.00,East,90,0.0,0.0,84,0.00,,---,0.00,VWS V14.01,2013-03-28 11:16:00,
2013-03-28 04:21:00,39.2,34.8,30.00,East,90,0.0,0.0,84,0.00,,---,0.00,VWS V14.01,2013-03-28 11:21:00,
2013-03-28 04:26:00,38.8,34.4,30.00,ENE,68,0.0,0.0,84,0.00,,---,0.00,VWS V14.01,2013-03-28 11:26:00,
2013-03-28 04:31:00,38.7,34.2,30.00,NE,45,0.0,0.0,84,0.00,,---,0.00,VWS V14.01,2013-03-28 11:31:00,
2013-03-28 04:36:00,38.7,34.5,30.00,NE,45,1.3,1.3,85,0.00,,---,0.00,VWS V14.01,2013-03-28 11:36:00,
2013-03-28 04:42:00,38.5,34.4,29.97,ENE,68,0.0,0.0,85,0.00,,---,0.00,VWS V14.01,2013-03-28 11:42:00,
2013-03-28 04:47:00,38.1,34.3,29.97,ESE,112,0.0,0.0,86,0.00,,---,0.00,VWS V14.01,2013-03-28 11:47:00,
2013-03-28 04:52:00,37.9,34.1,29.97,SE,135,0.0,0.0,86,0.00,,---,0.00,VWS V14.01,2013-03-28 11:52:00,
2013-03-28 04:57:00,37.9,34.4,30.00,East,90,0.0,0.0,87,0.00,,---,0.00,VWS V14.01,2013-03-28 11:57:00,
2013-03-28 05:02:00,37.4,33.3,30.00,East,90,0.0,0.0,85,0.00,,---,0.00,VWS V14.01,2013-03-28 12:02:00,
2013-03-28 05:07:00,37.2,33.7,30.00,East,90,0.0,0.0,87,0.00,,---,0.00,VWS V14.01,2013-03-28 12:07:00,
2013-03-28 05:12:00,37.0,33.2,30.00,East,90,0.0,0.0,86,0.00,,---,0.00,VWS V14.01,2013-03-28 12:12:00,
2013-03-28 05:17:00,37.0,33.5,30.00,SE,135,0.0,0.0,87,0.00,,---,0.00,VWS V14.01,2013-03-28 12:17:00,
2013-03-28 05:22:00,37.0,33.8,30.00,NE,45,0.0,0.0,88,0.00,,---,0.00,VWS V14.01,2013-03-28 12:22:00,
2013-03-28 05:27:00,36.9,33.7,30.00,ENE,68,0.0,0.0,88,0.00,,---,0.00,VWS V14.01,2013-03-28 12:27:00,
2013-03-28 05:32:00,36.9,33.7,30.00,East,90,0.0,0.0,88,0.00,,---,0.00,VWS V14.01,2013-03-28 12:32:00,
2013-03-28 05:37:00,36.7,33.5,30.00,East,90,0.0,0.0,88,0.00,,---,0.00,VWS V14.01,2013-03-28 12:37:00,
2013-03-28 05:42:00,36.3,32.8,30.00,East,90,0.0,0.0,87,0.00,,---,0.00,VWS V14.01,2013-03-28 12:42:00,
2013-03-28 05:48:00,36.3,33.1,30.00,ESE,112,0.0,0.0,88,0.00,,---,0.00,VWS V14.01,2013-03-28 12:48:00,
2013-03-28 05:53:00,36.7,33.8,30.00,East,90,0.0,0.0,89,0.00,,---,0.00,VWS V14.01,2013-03-28 12:53:00,
2013-03-28 05:58:00,36.7,33.8,30.00,ESE,112,0.0,0.0,89,0.00,,---,0.00,VWS V14.01,2013-03-28 12:58:00,
2013-03-28 06:03:00,36.9,33.9,30.00,SSE,158,2.0,2.0,89,0.00,,---,0.00,VWS V14.01,2013-03-28 13:03:00,
2013-03-28 06:08:00,37.0,34.1,29.97,North,0,0.0,0.0,89,0.00,,---,0.00,VWS V14.01,2013-03-28 13:08:00,
2013-03-28 06:13:00,37.0,34.4,29.97,East,90,1.6,1.6,90,0.00,,---,0.00,VWS V14.01,2013-03-28 13:13:00,
2013-03-28 06:18:00,37.0,34.1,29.97,SSE,158,0.0,0.0,89,0.00,,---,0.00,VWS V14.01,2013-03-28 13:18:00,
2013-03-28 06:23:00,37.0,34.1,30.00,SE,135,0.0,0.0,89,0.00,,---,0.00,VWS V14.01,2013-03-28 13:23:00,
2013-03-28 06:28:00,36.7,33.5,30.00,ESE,112,0.0,0.0,88,0.00,,---,0.00,VWS V14.01,2013-03-28 13:28:00,
2013-03-28 06:33:00,36.5,33.3,30.00,ENE,68,0.0,0.0,88,0.00,,---,0.00,VWS V14.01,2013-03-28 13:33:00,
2013-03-28 06:38:00,36.5,33.3,29.97,ENE,68,0.0,0.0,88,0.00,,---,0.00,VWS V14.01,2013-03-28 13:38:00,
2013-03-28 06:43:00,36.3,33.1,29.97,ENE,68,0.0,0.0,88,0.00,,---,0.00,VWS V14.01,2013-03-28 13:43:00,
2013-03-28 06:48:00,36.1,32.9,29.97,SE,135,0.0,0.0,88,0.00,,---,0.00,VWS V14.01,2013-03-28 13:48:00,
2013-03-28 06:53:00,36.5,33.3,30.00,SE,135,0.0,0.0,88,0.00,,---,0.00,VWS V14.01,2013-03-28 13:53:00,
2013-03-28 06:58:00,36.5,33.6,30.00,SE,135,0.0,0.0,89,0.00,,---,0.00,VWS V14.01,2013-03-28 13:58:00,
2013-03-28 07:04:00,37.0,34.1,30.00,SSE,158,0.0,0.0,89,0.00,,---,0.00,VWS V14.01,2013-03-28 14:04:00,
2013-03-28 07:09:00,37.2,34.6,30.00,SE,135,0.0,0.0,90,0.00,,---,0.00,VWS V14.01,2013-03-28 14:09:00,
2013-03-28 07:14:00,37.6,34.9,30.00,East,90,0.0,0.0,90,0.00,,---,0.00,VWS V14.01,2013-03-28 14:14:00,
2013-03-28 07:19:00,38.3,36.2,30.00,SSE,158,1.3,1.3,92,0.00,,---,0.00,VWS V14.01,2013-03-28 14:19:00,
2013-03-28 07:24:00,39.2,37.1,30.00,SSE,158,1.1,1.1,92,0.00,,---,0.00,VWS V14.01,2013-03-28 14:24:00,
2013-03-28 07:29:00,39.6,37.4,30.00,ESE,112,3.1,3.1,92,0.00,,---,0.00,VWS V14.01,2013-03-28 14:29:00,
2013-03-28 07:34:00,40.1,37.7,30.00,SE,135,3.6,3.6,91,0.00,,---,0.00,VWS V14.01,2013-03-28 14:34:00,
2013-03-28 07:39:00,40.6,37.9,30.00,ESE,112,3.6,3.6,90,0.00,,---,0.00,VWS V14.01,2013-03-28 14:39:00,
2013-03-28 07:44:00,41.4,37.8,30.00,ESE,112,0.0,0.0,87,0.00,,---,0.00,VWS V14.01,2013-03-28 14:44:00,
2013-03-28 07:49:00,42.1,38.5,30.00,East,90,2.5,2.5,87,0.00,,---,0.00,VWS V14.01,2013-03-28 14:49:00,
2013-03-28 07:54:00,42.1,37.9,30.00,SE,135,3.6,3.6,85,0.00,,---,0.00,VWS V14.01,2013-03-28 14:54:00,
2013-03-28 07:59:00,42.3,37.2,30.00,ESE,112,2.2,2.2,82,0.00,,---,0.00,VWS V14.01,2013-03-28 14:59:00,
2013-03-28 08:04:00,42.4,36.4,30.00,ESE,112,3.1,3.1,79,0.00,,---,0.00,VWS V14.01,2013-03-28 15:04:00,
2013-03-28 08:09:00,42.8,36.4,30.00,SE,135,0.0,0.0,78,0.00,,---,0.00,VWS V14.01,2013-03-28 15:09:00,
2013-03-28 08:15:00,42.8,36.1,30.00,East,90,2.9,2.9,77,0.00,,---,0.00,VWS V14.01,2013-03-28 15:15:00,
2013-03-28 08:20:00,43.5,36.8,30.00,ENE,68,2.5,2.5,77,0.00,,---,0.00,VWS V14.01,2013-03-28 15:20:00,
2013-03-28 08:25:00,44.6,37.5,30.03,SE,135,0.0,0.0,76,0.00,,---,0.00,VWS V14.01,2013-03-28 15:25:00,
2013-03-28 08:30:00,45.1,37.4,30.03,East,90,0.0,0.0,74,0.00,,---,0.00,VWS V14.01,2013-03-28 15:30:00,
2013-03-28 08:35:00,46.8,38.2,30.03,ENE,68,2.5,2.5,72,0.00,,---,0.00,VWS V14.01,2013-03-28 15:35:00,
2013-03-28 08:40:00,47.7,37.6,30.00,East,90,2.2,2.2,68,0.00,,---,0.00,VWS V14.01,2013-03-28 15:40:00,
2013-03-28 08:45:00,46.6,35.8,30.00,ESE,112,2.0,2.0,66,0.00,,---,0.00,VWS V14.01,2013-03-28 15:45:00,
2013-03-28 08:50:00,46.0,35.3,30.00,East,90,1.6,1.6,66,0.00,,---,0.00,VWS V14.01,2013-03-28 15:50:00,
2013-03-28 08:55:00,46.6,36.2,29.97,ENE,68,0.9,0.9,67,0.00,,---,0.00,VWS V14.01,2013-03-28 15:55:00,
2013-03-28 09:00:00,46.8,35.6,29.97,ENE,68,4.3,4.3,65,0.00,,---,0.00,VWS V14.01,2013-03-28 16:00:00,
2013-03-28 09:05:00,46.6,35.5,29.97,ESE,112,2.0,2.0,65,0.00,,---,0.00,VWS V14.01,2013-03-28 16:05:00,
2013-03-28 09:10:00,46.8,36.0,30.00,SSE,158,0.0,0.0,66,0.00,,---,0.00,VWS V14.01,2013-03-28 16:10:00,
2013-03-28 09:15:00,46.9,35.4,30.00,ESE,112,3.8,3.8,64,0.00,,---,0.00,VWS V14.01,2013-03-28 16:15:00,
2013-03-28 09:21:00,47.1,35.6,30.00,East,90,0.0,0.0,64,0.00,,---,0.00,VWS V14.01,2013-03-28 16:21:00,
2013-03-28 09:26:00,47.7,36.1,30.00,East,90,3.1,3.1,64,0.00,,---,0.00,VWS V14.01,2013-03-28 16:26:00,
2013-03-28 09:31:00,47.5,35.5,30.00,East,90,4.3,4.3,63,0.00,,---,0.00,VWS V14.01,2013-03-28 16:31:00,
2013-03-28 09:36:00,47.3,35.4,30.00,SSE,158,3.8,3.8,63,0.00,,---,0.00,VWS V14.01,2013-03-28 16:36:00,
2013-03-28 09:41:00,48.0,36.4,30.00,East,90,4.0,4.0,64,0.00,,---,0.00,VWS V14.01,2013-03-28 16:41:00,
2013-03-28 09:46:00,49.6,36.8,30.00,ENE,68,2.5,2.5,61,0.00,,---,0.00,VWS V14.01,2013-03-28 16:46:00,
2013-03-28 09:51:00,50.5,36.3,30.00,SE,135,3.8,3.8,58,0.00,,---,0.00,VWS V14.01,2013-03-28 16:51:00,
2013-03-28 09:56:00,50.2,36.4,30.00,SSE,158,0.9,0.9,59,0.00,,---,0.00,VWS V14.01,2013-03-28 16:56:00,
2013-03-28 10:02:00,49.6,35.5,30.00,ESE,112,3.6,3.6,58,0.00,,---,0.00,VWS V14.01,2013-03-28 17:02:00,
2013-03-28 10:07:00,49.5,35.3,30.00,SE,135,2.9,2.9,58,0.00,,---,0.00,VWS V14.01,2013-03-28 17:07:00,
2013-03-28 10:12:00,49.3,35.1,30.03,East,90,0.0,0.0,58,0.00,,---,0.00,VWS V14.01,2013-03-28 17:12:00,
2013-03-28 10:17:00,50.5,36.3,30.03,SSE,158,1.3,1.3,58,0.00,,---,0.00,VWS V14.01,2013-03-28 17:17:00,
2013-03-28 10:22:00,51.4,36.7,30.03,East,90,2.5,2.5,57,0.00,,---,0.00,VWS V14.01,2013-03-28 17:22:00,
2013-03-28 10:27:00,51.1,36.0,30.03,ESE,112,4.9,4.9,56,0.00,,---,0.00,VWS V14.01,2013-03-28 17:27:00,
2013-03-28 10:32:00,51.3,35.7,30.03,East,90,2.2,2.2,55,0.00,,---,0.00,VWS V14.01,2013-03-28 17:32:00,
2013-03-28 10:37:00,51.6,35.5,30.03,NE,45,2.7,2.7,54,0.00,,---,0.00,VWS V14.01,2013-03-28 17:37:00,
2013-03-28 10:42:00,52.0,35.4,30.03,East,90,3.4,3.4,53,0.00,,---,0.00,VWS V14.01,2013-03-28 17:42:00,
2013-03-28 10:47:00,52.9,36.7,30.03,East,90,2.9,2.9,54,0.00,,---,0.00,VWS V14.01,2013-03-28 17:47:00,
2013-03-28 10:52:00,53.8,36.1,30.03,ESE,112,3.8,3.8,51,0.00,,---,0.00,VWS V14.01,2013-03-28 17:52:00,
2013-03-28 10:57:00,54.5,36.8,30.00,East,90,3.1,3.1,51,0.00,,---,0.00,VWS V14.01,2013-03-28 17:57:00,
2013-03-28 11:02:00,55.9,37.6,30.00,SE,135,0.0,0.0,50,0.00,,---,0.00,VWS V14.01,2013-03-28 18:02:00,
2013-03-28 11:07:00,56.8,37.4,30.00,NE,45,4.0,4.0,48,0.00,,---,0.00,VWS V14.01,2013-03-28 18:07:00,
2013-03-28 11:12:00,57.0,37.0,30.03,North,0,4.7,4.7,47,0.00,,---,0.00,VWS V14.01,2013-03-28 18:12:00,
2013-03-28 11:18:00,57.9,37.3,30.03,ENE,68,1.3,1.3,46,0.00,,---,0.00,VWS V14.01,2013-03-28 18:18:00,
2013-03-28 11:23:00,58.8,38.1,30.03,ENE,68,2.9,2.9,46,0.00,,---,0.00,VWS V14.01,2013-03-28 18:23:00,
2013-03-28 11:28:00,59.4,37.5,30.00,ENE,68,6.0,6.0,44,0.00,,---,0.00,VWS V14.01,2013-03-28 18:28:00,
2013-03-28 11:33:00,60.1,38.1,30.00,NNW,338,1.6,1.6,44,0.00,,---,0.00,VWS V14.01,2013-03-28 18:33:00,
2013-03-28 11:38:00,60.6,38.0,30.00,East,90,4.0,4.0,43,0.00,,---,0.00,VWS V14.01,2013-03-28 18:38:00,
2013-03-28 11:43:00,60.6,37.4,30.00,East,90,2.7,2.7,42,0.00,,---,0.00,VWS V14.01,2013-03-28 18:43:00,
2013-03-28 11:48:00,60.8,37.6,30.00,East,90,3.6,3.6,42,0.00,,---,0.00,VWS V14.01,2013-03-28 18:48:00,
2013-03-28 11:53:00,60.8,36.3,30.00,North,0,4.0,4.0,40,0.00,,---,0.00,VWS V14.01,2013-03-28 18:53:00,
2013-03-28 11:58:00,61.5,37.6,30.00,East,90,1.3,1.3,41,0.00,,---,0.00,VWS V14.01,2013-03-28 18:58:00,
2013-03-28 12:03:00,62.6,38.0,30.00,East,90,2.5,2.5,40,0.00,,---,0.00,VWS V14.01,2013-03-28 19:03:00,
2013-03-28 12:08:00,61.9,37.3,30.00,East,90,2.2,2.2,40,0.00,,---,0.00,VWS V14.01,2013-03-28 19:08:00,
2013-03-28 12:13:00,61.3,36.8,30.00,North,0,0.9,0.9,40,0.00,,---,0.00,VWS V14.01,2013-03-28 19:13:00,
2013-03-28 12:18:00,61.7,37.2,30.00,East,90,1.3,1.3,40,0.00,,---,0.00,VWS V14.01,2013-03-28 19:18:00,
2013-03-28 12:24:00,62.2,37.6,29.97,ENE,68,2.9,2.9,40,0.00,,---,0.00,VWS V14.01,2013-03-28 19:24:00,
2013-03-28 12:29:00,62.2,37.0,29.97,NE,45,4.9,4.9,39,0.00,,---,0.00,VWS V14.01,2013-03-28 19:29:00,
2013-03-28 12:34:00,62.8,37.5,29.97,NNE,22,4.9,4.9,39,0.00,,---,0.00,VWS V14.01,2013-03-28 19:34:00,
2013-03-28 12:39:00,63.1,37.8,30.00,NNE,22,2.5,2.5,39,0.00,,---,0.00,VWS V14.01,2013-03-28 19:39:00,
2013-03-28 12:44:00,63.9,37.8,30.00,East,90,0.0,0.0,38,0.00,,---,0.00,VWS V14.01,2013-03-28 19:44:00,
2013-03-28 12:49:00,63.9,37.1,30.00,NNW,338,4.7,4.7,37,0.00,,---,0.00,VWS V14.01,2013-03-28 19:49:00,
2013-03-28 12:54:00,64.2,37.4,30.00,WNW,292,2.5,2.5,37,0.00,,---,0.00,VWS V14.01,2013-03-28 19:54:00,
2013-03-28 12:59:00,63.5,36.8,30.00,NNW,338,4.0,4.0,37,0.00,,---,0.00,VWS V14.01,2013-03-28 19:59:00,
2013-03-28 13:04:00,63.0,36.3,30.00,East,90,3.6,3.6,37,0.00,,---,0.00,VWS V14.01,2013-03-28 20:04:00,
2013-03-28 13:09:00,63.0,36.3,30.00,NNE,22,2.0,2.0,37,0.00,,---,0.00,VWS V14.01,2013-03-28 20:09:00,
2013-03-28 13:14:00,62.2,36.3,30.00,NNE,22,3.1,3.1,38,0.00,,---,0.00,VWS V14.01,2013-03-28 20:14:00,
2013-03-28 13:19:00,62.4,36.5,30.00,ENE,68,4.9,4.9,38,0.00,,---,0.00,VWS V14.01,2013-03-28 20:19:00,
2013-03-28 13:24:00,62.4,35.8,30.00,ENE,68,2.7,2.7,37,0.00,,---,0.00,VWS V14.01,2013-03-28 20:24:00,
2013-03-28 13:29:00,62.8,35.5,30.00,North,0,4.9,4.9,36,0.00,,---,0.00,VWS V14.01,2013-03-28 20:29:00,
2013-03-28 13:34:00,63.1,36.5,30.00,NE,45,1.3,1.3,37,0.00,,---,0.00,VWS V14.01,2013-03-28 20:34:00,
2013-03-28 13:39:00,63.0,35.6,30.00,East,90,1.6,1.6,36,0.00,,---,0.00,VWS V14.01,2013-03-28 20:39:00,
2013-03-28 13:45:00,63.0,35.6,30.00,ENE,68,2.0,2.0,36,0.00,,---,0.00,VWS V14.01,2013-03-28 20:45:00,
2013-03-28 13:50:00,62.6,35.3,30.00,East,90,0.0,0.0,36,0.00,,---,0.00,VWS V14.01,2013-03-28 20:50:00,
2013-03-28 13:55:00,63.0,35.6,30.00,NNW,338,2.7,2.7,36,0.00,,---,0.00,VWS V14.01,2013-03-28 20:55:00,
2013-03-28 14:00:00,64.0,36.6,30.00,NNW,338,3.4,3.4,36,0.00,,---,0.00,VWS V14.01,2013-03-28 21:00:00,
2013-03-28 14:05:00,66.0,37.6,30.00,ENE,68,2.9,2.9,35,0.00,,---,0.00,VWS V14.01,2013-03-28 21:05:00,
2013-03-28 14:10:00,66.6,37.3,30.00,ENE,68,2.2,2.2,34,0.00,,---,0.00,VWS V14.01,2013-03-28 21:10:00,
2013-03-28 14:15:00,66.4,37.2,30.00,South,180,0.0,0.0,34,0.00,,---,0.00,VWS V14.01,2013-03-28 21:15:00,
2013-03-28 14:20:00,65.7,35.8,30.00,North,0,2.2,2.2,33,0.00,,---,0.00,VWS V14.01,2013-03-28 21:20:00,
2013-03-28 14:25:00,64.9,35.2,29.97,NW,315,3.4,3.4,33,0.00,,---,0.00,VWS V14.01,2013-03-28 21:25:00,
2013-03-28 14:30:00,65.7,35.8,29.97,NNE,22,3.4,3.4,33,0.00,,---,0.00,VWS V14.01,2013-03-28 21:30:00,
2013-03-28 14:35:00,64.8,35.8,29.97,SSE,158,4.3,4.3,34,0.00,,---,0.00,VWS V14.01,2013-03-28 21:35:00,
2013-03-28 14:40:00,63.9,35.0,29.97,SE,135,2.5,2.5,34,0.00,,---,0.00,VWS V14.01,2013-03-28 21:40:00,
2013-03-28 14:45:00,63.5,34.7,29.97,SE,135,4.3,4.3,34,0.00,,---,0.00,VWS V14.01,2013-03-28 21:45:00,
2013-03-28 14:50:00,64.0,35.1,29.97,SE,135,2.7,2.7,34,0.00,,---,0.00,VWS V14.01,2013-03-28 21:50:00,
2013-03-28 14:55:00,64.2,35.3,29.97,East,90,2.0,2.0,34,0.00,,---,0.00,VWS V14.01,2013-03-28 21:55:00,
2013-03-28 15:00:00,64.2,35.3,29.97,SW,225,4.3,4.3,34,0.00,,---,0.00,VWS V14.01,2013-03-28 22:00:00,
2013-03-28 15:05:00,63.5,34.7,29.97,SE,135,2.7,2.7,34,0.00,,---,0.00,VWS V14.01,2013-03-28 22:05:00,
2013-03-28 15:11:00,63.1,34.3,29.94,South,180,3.1,3.1,34,0.00,,---,0.00,VWS V14.01,2013-03-28 22:11:00,
2013-03-28 15:16:00,63.5,34.7,29.94,West,270,0.0,0.0,34,0.00,,---,0.00,VWS V14.01,2013-03-28 22:16:00,
2013-03-28 15:21:00,63.0,34.2,29.94,SSW,202,3.6,3.6,34,0.00,,---,0.00,VWS V14.01,2013-03-28 22:21:00,
2013-03-28 15:26:00,62.4,33.7,29.97,WSW,248,3.4,3.4,34,0.00,,---,0.00,VWS V14.01,2013-03-28 22:26:00,
2013-03-28 15:31:00,62.2,33.5,29.97,South,180,4.0,4.0,34,0.00,,---,0.00,VWS V14.01,2013-03-28 22:31:00,
2013-03-28 15:36:00,63.0,34.2,29.97,SSE,158,2.0,2.0,34,0.00,,---,0.00,VWS V14.01,2013-03-28 22:36:00,
2013-03-28 15:41:00,63.0,34.2,29.94,SSW,202,5.8,5.8,34,0.00,,---,0.00,VWS V14.01,2013-03-28 22:41:00,
2013-03-28 15:47:00,62.6,33.9,29.94,SE,135,0.0,0.0,34,0.00,,---,0.00,VWS V14.01,2013-03-28 22:47:00,
2013-03-28 15:52:00,63.5,34.7,29.94,SW,225,4.9,4.9,34,0.00,,---,0.00,VWS V14.01,2013-03-28 22:52:00,
2013-03-28 15:57:00,62.8,34.0,29.94,SW,225,1.6,1.6,34,0.00,,---,0.00,VWS V14.01,2013-03-28 22:57:00,
2013-03-28 16:02:00,61.7,33.1,29.94,SSW,202,3.6,3.6,34,0.00,,---,0.00,VWS V14.01,2013-03-28 23:02:00,
2013-03-28 16:07:00,61.7,33.1,29.94,SW,225,1.6,1.6,34,0.00,,---,0.00,VWS V14.01,2013-03-28 23:07:00,
2013-03-28 16:12:00,61.3,32.8,29.97,WSW,248,3.1,3.1,34,0.00,,---,0.00,VWS V14.01,2013-03-28 23:12:00,
2013-03-28 16:17:00,60.8,33.0,29.97,WNW,292,3.4,3.4,35,0.00,,---,0.00,VWS V14.01,2013-03-28 23:17:00,
2013-03-28 16:22:00,59.9,34.2,29.97,WNW,292,3.4,3.4,38,0.00,,---,0.00,VWS V14.01,2013-03-28 23:22:00,
2013-03-28 16:27:00,58.8,36.4,29.97,West,270,3.1,3.1,43,0.00,,---,0.00,VWS V14.01,2013-03-28 23:27:00,
2013-03-28 16:32:00,58.1,36.3,29.97,WNW,292,3.6,3.6,44,0.00,,---,2.71,VWS V14.01,2013-03-28 23:32:00,
2013-03-28 16:37:00,58.1,36.3,29.97,WNW,292,2.7,2.7,44,0.00,,---,2.71,VWS V14.01,2013-03-28 23:37:00,
2013-03-28 16:42:00,58.1,36.3,29.97,West,270,0.0,0.0,44,0.00,,---,2.71,VWS V14.01,2013-03-28 23:42:00,
2013-03-28 16:47:00,58.1,36.3,29.97,WSW,248,0.0,0.0,44,0.00,,---,2.71,VWS V14.01,2013-03-28 23:47:00,
2013-03-28 16:52:00,58.1,36.3,29.97,SSW,202,0.0,0.0,44,0.00,,---,2.71,VWS V14.01,2013-03-28 23:52:00,
2013-03-28 16:57:00,58.1,36.3,29.97,SSW,202,0.0,0.0,44,0.00,,---,2.71,VWS V14.01,2013-03-28 23:57:00,
2013-03-28 17:02:00,58.1,36.3,29.97,SSW,202,0.0,0.0,44,0.00,,---,2.71,VWS V14.01,2013-03-29 00:02:00,
2013-03-28 17:07:00,55.9,45.2,29.97,SSE,158,2.9,2.9,67,0.00,,---,2.71,VWS V14.01,2013-03-29 00:07:00,
2013-03-28 17:13:00,55.2,44.9,29.97,South,180,2.0,2.0,68,0.00,,---,2.71,VWS V14.01,2013-03-29 00:13:00,
2013-03-28 17:18:00,54.9,43.3,29.97,SSE,158,2.5,2.5,65,0.00,,---,2.71,VWS V14.01,2013-03-29 00:18:00,
2013-03-28 17:23:00,54.9,43.3,29.97,SSE,158,0.0,0.0,65,0.00,,---,2.71,VWS V14.01,2013-03-29 00:23:00,
2013-03-28 17:28:00,54.9,43.3,29.97,South,180,0.0,0.0,65,0.00,,---,2.71,VWS V14.01,2013-03-29 00:28:00,
2013-03-28 17:33:00,54.9,43.3,29.97,South,180,0.0,0.0,65,0.00,,---,2.71,VWS V14.01,2013-03-29 00:33:00,
2013-03-28 17:38:00,54.9,43.3,29.97,SSE,158,0.0,0.0,65,0.00,,---,2.71,VWS V14.01,2013-03-29 00:38:00,
2013-03-28 17:43:00,54.9,43.3,29.97,South,180,0.0,0.0,65,0.00,,---,2.71,VWS V14.01,2013-03-29 00:43:00,
2013-03-28 17:48:00,54.9,43.3,29.97,East,90,0.0,0.0,65,0.00,,---,2.71,VWS V14.01,2013-03-29 00:48:00,
2013-03-28 17:53:00,54.9,43.3,29.97,East,90,0.0,0.0,65,0.00,,---,2.71,VWS V14.01,2013-03-29 00:53:00,
2013-03-28 17:58:00,54.9,43.3,29.97,SW,225,0.0,0.0,65,0.00,,---,2.71,VWS V14.01,2013-03-29 00:58:00,
2013-03-28 18:03:00,54.9,43.3,29.97,South,180,0.0,0.0,65,0.00,,---,2.71,VWS V14.01,2013-03-29 01:03:00,
2013-03-28 18:08:00,54.9,43.3,29.97,SE,135,0.0,0.0,65,0.00,,---,2.71,VWS V14.01,2013-03-29 01:08:00,
2013-03-28 18:13:00,54.9,43.3,29.97,SSE,158,0.0,0.0,65,0.00,,---,2.71,VWS V14.01,2013-03-29 01:13:00,
2013-03-28 18:18:00,54.9,43.3,29.97,SSE,158,0.0,0.0,65,0.00,,---,2.71,VWS V14.01,2013-03-29 01:18:00,
2013-03-28 18:23:00,54.9,43.3,29.97,South,180,0.0,0.0,65,0.00,,---,2.71,VWS V14.01,2013-03-29 01:23:00,
2013-03-28 18:28:00,54.9,43.3,29.97,South,180,0.0,0.0,65,0.00,,---,2.71,VWS V14.01,2013-03-29 01:28:00,
2013-03-28 18:33:00,54.9,43.3,29.97,SSE,158,0.0,0.0,65,0.00,,---,2.71,VWS V14.01,2013-03-29 01:33:00,
2013-03-28 18:38:00,54.9,43.3,29.97,SSE,158,0.0,0.0,65,0.00,,---,2.71,VWS V14.01,2013-03-29 01:38:00,
2013-03-28 18:43:00,54.1,43.8,29.97,SSE,158,0.0,0.0,68,0.00,,---,2.71,VWS V14.01,2013-03-29 01:43:00,
2013-03-28 18:49:00,54.0,44.0,29.97,SSE,158,0.0,0.0,69,0.00,,---,0.00,VWS V14.01,2013-03-29 01:49:00,
2013-03-28 18:54:00,53.6,43.7,29.97,SSE,158,0.0,0.0,69,0.00,,---,2.71,VWS V14.01,2013-03-29 01:54:00,
2013-03-28 18:59:00,53.4,43.9,29.97,SSE,158,0.0,0.0,70,0.00,,---,2.71,VWS V14.01,2013-03-29 01:59:00,
2013-03-28 19:04:00,53.2,43.7,29.97,SSE,158,0.0,0.0,70,0.00,,---,2.71,VWS V14.01,2013-03-29 02:04:00,
2013-03-28 19:09:00,53.1,43.9,29.97,SSE,158,0.0,0.0,71,0.00,,---,2.71,VWS V14.01,2013-03-29 02:09:00,
2013-03-28 19:14:00,53.1,42.8,29.97,South,180,0.0,0.0,68,0.00,,---,2.71,VWS V14.01,2013-03-29 02:14:00,
2013-03-28 19:19:00,52.7,42.8,29.97,South,180,0.0,0.0,69,0.00,,---,2.71,VWS V14.01,2013-03-29 02:19:00,
2013-03-28 19:24:00,52.3,42.5,30.00,SSE,158,2.7,2.7,69,0.00,,---,2.71,VWS V14.01,2013-03-29 02:24:00,
2013-03-28 19:29:00,52.0,42.1,30.00,SSE,158,0.0,0.0,69,0.00,,---,2.71,VWS V14.01,2013-03-29 02:29:00,
2013-03-28 19:34:00,51.8,42.0,30.00,SSE,158,0.0,0.0,69,0.00,,---,2.71,VWS V14.01,2013-03-29 02:34:00,
2013-03-28 19:39:00,51.4,41.6,29.97,SSE,158,0.0,0.0,69,0.00,,---,2.71,VWS V14.01,2013-03-29 02:39:00,
2013-03-28 19:44:00,51.1,41.7,29.97,SSE,158,0.0,0.0,70,0.00,,---,2.71,VWS V14.01,2013-03-29 02:44:00,
2013-03-28 19:49:00,50.9,41.5,29.97,SSE,158,0.0,0.0,70,0.00,,---,2.71,VWS V14.01,2013-03-29 02:49:00,
2013-03-28 19:55:00,50.5,41.1,30.00,SSE,158,0.0,0.0,70,0.00,,---,2.71,VWS V14.01,2013-03-29 02:55:00,
2013-03-28 20:00:00,50.4,41.0,30.00,SSE,158,0.0,0.0,70,0.00,,---,2.71,VWS V14.01,2013-03-29 03:00:00,
2013-03-28 20:05:00,50.2,41.2,30.00,SSE,158,0.0,0.0,71,0.00,,---,2.71,VWS V14.01,2013-03-29 03:05:00,
2013-03-28 20:10:00,49.8,40.8,30.00,SSE,158,0.0,0.0,71,0.00,,---,2.71,VWS V14.01,2013-03-29 03:10:00,
2013-03-28 20:15:00,49.8,40.8,30.00,SSE,158,0.0,0.0,71,0.00,,---,2.71,VWS V14.01,2013-03-29 03:15:00,
2013-03-28 20:20:00,49.8,40.4,30.00,SSE,158,2.0,2.0,70,0.00,,---,2.71,VWS V14.01,2013-03-29 03:20:00,
2013-03-28 20:25:00,50.0,40.2,30.00,SSE,158,2.7,2.7,69,0.00,,---,2.71,VWS V14.01,2013-03-29 03:25:00,
2013-03-28 20:30:00,49.8,40.1,30.00,SSE,158,0.0,0.0,69,0.00,,---,2.71,VWS V14.01,2013-03-29 03:30:00,
2013-03-28 20:35:00,49.6,39.9,30.00,SSE,158,0.0,0.0,69,0.00,,---,2.71,VWS V14.01,2013-03-29 03:35:00,
2013-03-28 20:40:00,49.5,39.7,30.00,SSE,158,0.0,0.0,69,0.00,,---,2.71,VWS V14.01,2013-03-29 03:40:00,
2013-03-28 20:45:00,49.5,40.5,30.00,SSE,158,0.0,0.0,71,0.00,,---,2.71,VWS V14.01,2013-03-29 03:45:00,
2013-03-28 20:50:00,49.5,40.1,30.00,SSE,158,0.0,0.0,70,0.00,,---,2.71,VWS V14.01,2013-03-29 03:50:00,
2013-03-28 20:55:00,49.5,40.5,29.97,SSW,202,0.0,0.0,71,0.00,,---,2.71,VWS V14.01,2013-03-29 03:55:00,
2013-03-28 21:00:00,49.5,40.5,29.97,SSE,158,0.0,0.0,71,0.00,,---,2.71,VWS V14.01,2013-03-29 04:00:00,
2013-03-28 21:02:00,49.5,40.5,29.97,SSE,158,0.0,0.0,71,0.00,,---,2.71,VWS V14.01,2013-03-29 04:02:00,
2013-03-28 21:07:00,49.3,40.7,29.97,South,180,0.0,0.0,72,0.00,,---,2.71,VWS V14.01,2013-03-29 04:07:00,
2013-03-28 21:12:00,49.1,40.8,30.00,South,180,0.0,0.0,73,0.00,,---,2.71,VWS V14.01,2013-03-29 04:12:00,
2013-03-28 21:17:00,49.1,40.8,30.00,South,180,0.0,0.0,73,0.00,,---,2.71,VWS V14.01,2013-03-29 04:17:00,
2013-03-28 21:22:00,48.9,41.0,30.00,South,180,0.0,0.0,74,0.00,,---,2.71,VWS V14.01,2013-03-29 04:22:00,
2013-03-28 21:27:00,48.9,40.7,30.00,South,180,0.0,0.0,73,0.00,,---,2.71,VWS V14.01,2013-03-29 04:27:00,
2013-03-28 21:32:00,48.9,40.3,30.00,SSE,158,0.0,0.0,72,0.00,,---,2.71,VWS V14.01,2013-03-29 04:32:00,
2013-03-28 21:37:00,48.7,40.1,30.00,SSE,158,0.0,0.0,72,0.00,,---,2.71,VWS V14.01,2013-03-29 04:37:00,
2013-03-28 21:42:00,48.6,40.3,30.03,SE,135,0.0,0.0,73,0.00,,---,2.71,VWS V14.01,2013-03-29 04:42:00,
2013-03-28 21:47:00,48.4,39.8,30.03,SE,135,0.0,0.0,72,0.00,,---,2.71,VWS V14.01,2013-03-29 04:47:00,
2013-03-28 21:52:00,48.2,39.6,30.03,SE,135,0.0,0.0,72,0.00,,---,2.71,VWS V14.01,2013-03-29 04:52:00,
2013-03-28 21:58:00,48.4,40.5,30.03,SE,135,0.0,0.0,74,0.00,,---,2.71,VWS V14.01,2013-03-29 04:58:00,
2013-03-28 22:03:00,48.2,40.3,30.03,SE,135,0.0,0.0,74,0.00,,---,2.71,VWS V14.01,2013-03-29 05:03:00,
2013-03-28 22:08:00,48.0,40.1,30.03,SE,135,0.0,0.0,74,0.00,,---,2.71,VWS V14.01,2013-03-29 05:08:00,
2013-03-28 22:13:00,47.8,40.3,30.03,SE,135,0.0,0.0,75,0.00,,---,2.71,VWS V14.01,2013-03-29 05:13:00,
2013-03-28 22:18:00,47.8,40.3,30.03,SE,135,0.0,0.0,75,0.00,,---,2.71,VWS V14.01,2013-03-29 05:18:00,
2013-03-28 22:23:00,47.7,39.8,30.03,SE,135,0.0,0.0,74,0.00,,---,2.71,VWS V14.01,2013-03-29 05:23:00,
2013-03-28 22:28:00,47.5,40.0,30.03,SE,135,0.0,0.0,75,0.00,,---,2.71,VWS V14.01,2013-03-29 05:28:00,
2013-03-28 22:33:00,47.1,39.6,30.03,SE,135,0.0,0.0,75,0.00,,---,2.71,VWS V14.01,2013-03-29 05:33:00,
2013-03-28 22:38:00,47.1,39.3,30.03,SE,135,0.0,0.0,74,0.00,,---,2.71,VWS V14.01,2013-03-29 05:38:00,
2013-03-28 22:43:00,47.1,39.6,30.03,SE,135,0.0,0.0,75,0.00,,---,2.71,VWS V14.01,2013-03-29 05:43:00,
2013-03-28 22:48:00,47.1,40.0,30.03,SE,135,0.0,0.0,76,0.00,,---,2.71,VWS V14.01,2013-03-29 05:48:00,
2013-03-28 22:53:00,46.8,39.3,30.06,SE,135,0.0,0.0,75,0.00,,---,2.71,VWS V14.01,2013-03-29 05:53:00,
2013-03-28 22:59:00,46.2,39.1,30.06,SE,135,0.0,0.0,76,0.00,,---,2.71,VWS V14.01,2013-03-29 05:59:00,
2013-03-28 23:04:00,46.0,38.9,30.06,SE,135,0.0,0.0,76,0.00,,---,0.00,VWS V14.01,2013-03-29 06:04:00,
2013-03-28 23:09:00,46.2,39.1,30.06,SE,135,0.0,0.0,76,0.00,,---,2.71,VWS V14.01,2013-03-29 06:09:00,
2013-03-28 23:14:00,45.9,38.7,30.06,SE,135,0.0,0.0,76,0.00,,---,2.71,VWS V14.01,2013-03-29 06:14:00,
2013-03-28 23:19:00,45.5,38.4,30.06,SE,135,0.0,0.0,76,0.00,,---,2.71,VWS V14.01,2013-03-29 06:19:00,
2013-03-28 23:24:00,45.3,38.5,30.06,SE,135,0.0,0.0,77,0.00,,---,2.71,VWS V14.01,2013-03-29 06:24:00,
2013-03-28 23:29:00,44.8,38.0,30.06,SE,135,0.0,0.0,77,0.00,,---,2.71,VWS V14.01,2013-03-29 06:29:00,
2013-03-28 23:34:00,44.8,38.0,30.06,SE,135,0.0,0.0,77,0.00,,---,2.71,VWS V14.01,2013-03-29 06:34:00,
2013-03-28 23:39:00,44.6,37.8,30.06,SE,135,0.0,0.0,77,0.00,,---,2.71,VWS V14.01,2013-03-29 06:39:00,
2013-03-28 23:44:00,44.2,37.8,30.06,SE,135,0.0,0.0,78,0.00,,---,2.71,VWS V14.01,2013-03-29 06:44:00,
2013-03-28 23:49:00,44.1,37.7,30.06,SE,135,0.0,0.0,78,0.00,,---,2.71,VWS V14.01,2013-03-29 06:49:00,
2013-03-28 23:54:00,43.9,37.5,30.06,SE,135,0.0,0.0,78,0.00,,---,2.71,VWS V14.01,2013-03-29 06:54:00,
2013-03-28 23:59:00,43.9,37.8,30.06,SE,135,0.0,0.0,79,0.00,,---,2.71,VWS V14.01,2013-03-29 06:59:00,